This demonstration page uses our WeatherBlox Daily Observations layout. Learn more.

Left ArrowRight Arrow

Hourly Observations for May 29, 2017

Temp ( °F °C ) Dew Point ( °F °C ) Humidity (%) Winds ( mph kmh ) Pressure ( in mb ) Visibility ( mi km ) Precip ( " mm )
12:52 am 00:52 Clear 62 16.7 56 13.3 80 80 WSW 8 13 29.95 1014 10 16 0.00 0.00
1:52 am 01:52 Clear 61 16.1 56 13.3 84 84 SW 9 15 29.96 1015 10 16 0.00 0.00
2:52 am 02:52 Clear 61 16.1 56 13.3 84 84 SW 8 13 29.97 1015 10 16 0.00 0.00
3:52 am 03:52 Clear 61 16.1 56 13.3 84 84 WSW 9 15 29.96 1015 10 16 0.00 0.00
4:52 am 04:52 Clear 60 15.6 55 12.8 84 84 WSW 7 11 29.95 1014 10 16 0.00 0.00
5:52 am 05:52 Clear 60 15.6 55 12.8 84 84 SW 5 7 29.95 1014 10 16 0.00 0.00
6:52 am 06:52 Sunny 61 16.1 55 12.8 81 81 SW 5 7 29.96 1014 10 16 0.00 0.00
7:52 am 07:52 Sunny 66 18.9 56 13.3 70 70 WSW 8 13 29.96 1015 10 16 0.00 0.00
8:52 am 08:52 Sunny 70 21.1 57 13.9 64 64 W 9 15 29.98 1015 10 16 0.00 0.00
9:52 am 09:52 Sunny 75 23.9 55 12.8 50 50 W 13 20 30.00 1016 10 16 0.00 0.00
10:52 am 10:52 Sunny 78 25.6 56 13.3 47 47 W 9 15 30.00 1016 10 16 0.00 0.00
11:52 am 11:52 Sunny 80 26.7 55 12.8 42 42 W 9 15 30.00 1016 10 16 0.00 0.00
12:52 pm 12:52 Sunny 81 27.2 56 13.3 42 42 W 12 19 29.99 1016 10 16 0.00 0.00
1:52 pm 13:52 Sunny 82 27.8 54 12.2 38 38 W 15 24 29.99 1016 10 16 0.00 0.00
2:52 pm 14:52 Sunny 82 27.8 52 11.1 35 35 WNW 12 19 29.98 1015 10 16 0.00 0.00
3:52 pm 15:52 Mostly Sunny 81 27.2 52 11.1 37 37 W 12 19 29.97 1015 10 16 0.00 0.00
4:52 pm 16:52 Sunny 82 27.8 53 11.7 37 37 W 13 20 29.96 1015 10 16 0.00 0.00
5:52 pm 17:52 Sunny 81 27.2 54 12.2 39 39 NW 7 11 29.95 1014 10 16 0.00 0.00
6:52 pm 18:52 Mostly Sunny 80 26.7 56 13.3 44 44 NW 8 13 29.94 1014 10 16 0.00 0.00
7:52 pm 19:52 Partly Cloudy 76 24.4 59 15 56 56 N 6 9 29.95 1014 10 16 0.00 0.00
8:52 pm 20:52 Clear 72 22.2 58 14.4 61 61 Calm 29.96 1015 10 16 0.00 0.00
9:52 pm 21:52 Clear 66 18.9 60 15.6 81 81 Calm 29.98 1015 10 16 0.00 0.00
10:52 pm 22:52 Clear 65 18.3 59 15 81 81 S 3 6 30.00 1016 10 16 0.00 0.00
11:52 pm 23:52 Clear 64 17.8 58 14.4 81 81 NNE 7 11 30.01 1016 10 16 0.00 0.00

Powered by AerisWeather